Retour au catalogue

GEMS2-AMETHYST

ActifScienceSSO
NORAD 68505·PAYLOAD·🇺🇸 United States

Lancé Mar 30, 2026 depuis Vandenberg Space Force Base

Loading…

Prochains Passages (prochaines 24 heures)

TLE

FraisSource: Space-Track

Époque: Sep 14, 2026, 03:01 UTC

1 68505U 26067CT  26257.12587230  .00003120  00000-0  31545-3 0  9992
2 68505  97.7696 213.9013 0006880 103.2978 256.9008 14.91709173 24975

Suivez GEMS2-AMETHYST en temps réel avec AllMySat

Download on the App Store